Weather History for Aurora, CO

Change the Weather History Date:

Saturday, June 15, 2013

  Actual Average Record
Temperature  
Mean Temperature 66 °F -  
Max Temperature 80 °F 76 °F 89 °F (2000)
Min Temperature 53 °F 49 °F 42 °F (1998)
Cooling Degree Days 2    
Growing Degree Days 16 (Base 50)    
Moisture  
Dew Point 45 °F    
Average Humidity 47    
Maximum Humidity 77    
Minimum Humidity 28    
Precipitation  
Precipitation 0.00 in - - ()
Sea Level Pressure  
Sea Level Pressure 29.89 in    
Wind  
Wind Speed 8 mph (NNE)    
Max Wind Speed 12 mph    
Max Gust Speed -    
Visibility 10 miles    
Events      
Averages and records for this station are not official NWS values.
T = Trace of Precipitation, MM = Missing Value Source: NWS Daily Summary

Daily Weather History Graph

Daily Weather History Graph

Search for Another Location

Airport:

Trip Planner

Search our weather history database for the weather conditions in past years. The results will help you decide how hot, cold, wet, or windy it might be!

Date:

Astronomy

Jun. 15, 2013 Rise Set
Actual Time 5:30 AM MDT 8:28 PM MDT
Civil Twilight 4:57 AM MDT 9:01 PM MDT
Nautical Twilight 4:16 AM MDT 9:42 PM MDT
Astronomical Twilight 3:28 AM MDT 10:30 PM MDT
Moon 12:06 PM MDT (6/15) 12:06 AM MDT (6/15)
Length of Visible Light 16h 03m
Length of Day
14h 58m
Waxing Crescent, 40% of the Moon is Illuminated
Jun 15
Waxing Crescent
Jun 16
First Quarter
Jun 23
Full
Jun 29
Last Quarter
Jul 8
New

Hourly Weather History & Observations

Time (MDT) Temp. Dew Point Humidity Pressure Visibility Wind Dir Wind Speed Gust Speed Precip Events Conditions
12:55 AM 62.6 °F 42.8 °F 48% 29.80 in 10.0 mi WSW 4.6 mph - N/A   Partly Cloudy
1:55 AM 62.6 °F 44.6 °F 52% 29.82 in 10.0 mi NW 9.2 mph - N/A   Partly Cloudy
2:55 AM 59.0 °F 46.4 °F 63% 29.84 in 10.0 mi NW 11.5 mph - N/A   Partly Cloudy
3:55 AM 55.4 °F 46.4 °F 72% 29.87 in 10.0 mi NW 9.2 mph - N/A   Partly Cloudy
4:55 AM 55.4 °F 46.4 °F 72% 29.88 in 10.0 mi WNW 11.5 mph - N/A   Partly Cloudy
5:55 AM 53.6 °F 46.4 °F 77% 29.91 in 70.0 mi WNW 6.9 mph - N/A   Partly Cloudy
6:55 AM 57.2 °F 46.4 °F 67% 29.92 in 70.0 mi NNW 5.8 mph - N/A   Partly Cloudy
7:55 AM 62.6 °F 46.4 °F 55% 29.96 in 70.0 mi North 11.5 mph - N/A   Partly Cloudy
8:55 AM 64.4 °F 46.4 °F 52% 29.96 in 70.0 mi NE 11.5 mph - N/A   Partly Cloudy
9:55 AM 66.2 °F 48.2 °F 52% 29.96 in 25.0 mi NE 9.2 mph - N/A   Partly Cloudy
10:55 AM 68.0 °F 48.2 °F 49% 29.94 in 25.0 mi SSE 4.6 mph - N/A   Partly Cloudy
11:55 AM 73.4 °F 46.4 °F 38% 29.91 in 25.0 mi North 10.4 mph - N/A   Partly Cloudy
12:55 PM 77.0 °F 46.4 °F 34% 29.89 in 25.0 mi ENE 9.2 mph - N/A   Partly Cloudy
1:55 PM 77.0 °F 46.4 °F 34% 29.87 in 25.0 mi NE 6.9 mph - N/A   Mostly Cloudy
2:55 PM 77.0 °F 44.6 °F 32% 29.88 in 70.0 mi ENE 6.9 mph - N/A   Mostly Cloudy
3:55 PM 77.0 °F 44.6 °F 32% 29.88 in 70.0 mi NNE 10.4 mph - N/A   Mostly Cloudy
4:55 PM 80.6 °F 44.6 °F 28% 29.84 in 25.0 mi NNE 11.5 mph - N/A   Mostly Cloudy
5:55 PM 77.0 °F 41.0 °F 28% 29.85 in 70.0 mi Calm Calm - N/A   Mostly Cloudy
6:55 PM 78.8 °F 42.8 °F 28% 29.84 in 70.0 mi East 5.8 mph - N/A   Scattered Clouds
7:55 PM 73.4 °F 42.8 °F 33% 29.86 in 70.0 mi Calm Calm - N/A   Scattered Clouds
8:55 PM 68.0 °F 42.8 °F 40% 29.89 in 25.0 mi SE 10.4 mph - N/A   Scattered Clouds
9:55 PM 66.2 °F 46.4 °F 49% 29.92 in 25.0 mi SSE 8.1 mph - N/A   Mostly Cloudy
10:55 PM 66.2 °F 44.6 °F 46% 29.92 in 10.0 mi South 9.2 mph - N/A   Scattered Clouds
11:55 PM 66.2 °F 44.6 °F 46% 29.90 in 10.0 mi South 9.2 mph - N/A   Scattered Clouds